Погода в Симферополе

Хотите узнать прогноз погоды в Симферополе? Тогда Вам сюда: Погода в Симферополе

Поиск расширенной информации на нашем сайте:

Полезная информация:

Новости сайта



02.01.2020
Опубликован Долгосрочный прогноз погоды по городам России и ближнего зарубежья на январь 2020 года.
Карты: Прогноз на январь и февраль 2020 года, Сравнение прогнозируемой аномалии приземной температуры воздуха на январь 2020 года по разным моделям.




Погода в Симферополе - сегодня

Время (UTC), дата Ветер
(°,м/с) 
Видим.   Явления Облачность Т
(°С)
Тd
(°С)
f(%) Тe
(°С)
Pmin
(гПа)
dP
(гПа)
Po
(мм)
O2
(г/м3)
Тmin Tmax R s Состояние
почвы
18 24.01.20 220 (ЮЗ) 10 км    8/8 930 м 
[Sc]
+2.6 -1.9 72 1027.9  754  301    +5.2       
21 24.01.20 200 (Ю) 10 км    4/4 800 м 
[Sc]
+1.6 -1.8 78 -2  1026.4  -1.6  753  302           
00 25.01.20 200 (Ю) 10 км    5/5 720 м 
[Sc]
+2.5 -0.6 80 -1  1025.3  -1  752  300           
03 25.01.20 190 (Ю) 7{10}  10 км    ясно 
+2.4 +0 84 -1  1023.1  -2.1  750  300  +1.1         
06 25.01.20 190 (Ю) 7-10{10}  10 км    ясно 
+3.9 +1.6 85 +1  1022  -1  750  298  +1.1         
09 25.01.20 220 (ЮЗ) 13-16{17}  10 км    8/8 700 м 
[Sc]
+8 +2.3 67 +4  1021.4  -0.2  749  293           
12 25.01.20 230 (ЮЗ) 11-14{17}  10 км    10/8 630 м верхняя 
[Sc|Ci fib]
+8.3 +2.5 67 +5  1019.7  -1.7  748  292           
15 25.01.20 240 (ЮЗ) 4{14}  10 км    4/4 450 м 
[St]
+4.6 +2.8 88 +3  1020.3  0.3  748  296           
18 25.01.20 200 (Ю) 10 км    1/1 300 м 
[St]
+1.9 +1.5 97 1021.2  0.7  749  299    +9.2       
21 25.01.20 180 (Ю) 10 км    ясно 
+0.4 +0.3 99 -2  1022.5  1.1  750  302           
00 26.01.20 170 (Ю) 10 км    ясно 
-0.2 -1 94 -3  1022.7  0.2  750  302           
03 26.01.20 170 (Ю) 10 км    ясно 
+0.3 -3.3 77 -3  1022.8  0.1  750  302  -0.6         
06 26.01.20 180 (Ю) 10 км    1/0 верхняя 
[Ci fib]
+0.4 -3.5 75 -3  1023.6  0.8  751  302  -0.8         
09 26.01.20 250 (З) 10 км    3/0 верхняя 
[Ci fib]
+8.1 +1.9 65 +7  1024.3  1.3  752  294           
12 26.01.20 270 (З) 10 км    ясно 
+9.1 +0 53 +8  1023.5  -0.7  751  293           
15 26.01.20 280 (З) 10 км    ясно 
+4.5 -4 54 +4  1024.3  0.4  751  298           
18 26.01.20 150 (ЮВ) 10 км    ясно 
+1.7 -3.2 70 1024.6  0.1  751  301    +9.7       
21 26.01.20 180 (Ю) 10 км    ясно 
+2.4 -1.9 73 +2  1024.5  -0.1  751  300           
00 27.01.20 160 (Ю) 10 км    ясно 
-0.3 -3.7 78 -2  1024.3  -0.4  751  303           
03 27.01.20 180 (Ю) 10 км    ясно 
+0.9 -4.1 69 1023.4  -0.8  750  302  -1.3         
06 27.01.20 110 (В) 10 км    1/0 верхняя 
[Ci fib]
+1.6 -4.3 65 1023  -0.3  750  301  -1.4         
09 27.01.20 250 (З) 10 км    10/0 верхняя 
[Ci fib]
+10.1 -1.9 43 +10  1021.3  -1  749  291           
12 27.01.20 300 (СЗ) 10 км    10/10 700 м 
[Sc]
+10 +1.6 56 +10  1019.3  -1.9  748  291           
15 27.01.20 080 (В) 10 км    10/8 800 м средняя 
[Sc|Ac und]
+8.9 +2.5 64 +10  1018.7  -0.7  748  291           
18 27.01.20 160 (Ю) 10 км    10/0 средняя 
[Ac und]
+7.7 +3.2 73 +8  1018.1  -0.7  747  292    +10.8       
Время (UTC), дата Ветер
(°,м/с) 
Видим.   Явления Облачность Т
(°С)
Тd
(°С)
f(%) Тe
(°С)
Pmin
(гПа)
dP
(гПа)
Po
(мм)
O2
(г/м3)
Тmin Tmax R s Состояние
почвы

Для получения пояснительной информации подведите курсор к названию столбца.

ПОГОДА в Симферополе - архив

Всё, что Вы хотите узнать о погоде в Симферополе - удобно и подробно!

Выберите нужную дату (начиная с 1 января 2019* года) и нажмите кнопку "Найти".
Будут отображены архивные сводки погоды по пункту Симферополь, начиная с указанной даты.


Отображать данные в формате CSV (для использования в таблицах Excel)


Внимание! Наш архив погоды предназначен исключительно для личного некоммерческого использования в познавательных целях. Если Вам необходимы официальные справки о состоянии погоды (для производственных, юридических, коммерческих и т.п. целей), обращайтесь в органы Росгидромета.

*Примечание: данная дата относится к архиву по метеостанциям СССР (Россия, СНГ, Балтия).
Архив по метеостанциям Зарубежной Европы и Азии (кроме Китая) хранится 10 дней, по другим регионам земного шара (Китай, Африка, Америка, Австралия, Океания) - 1 день.

Симферополь - район местоположения метеостанции


Название, широта, долгота, высота метеостанции:
Симферополь 44.7°ш. 34.1°д. 181 м над ур. моря [Российская Федерация]

Дополнительная информация

В oтличие oт бoльшинства пoгoдных сайтoв мы публикуем пoдрoбную метеoинфoрмацию в детальнoм прoфессиoнальнoм фoрмате.

Характеристики температуры и влажнoсти вoздуха измеряются на высoте 2 м в тени вдали oт зданий и деревьев.
Скoрoсть ветра измеряется на высoте 10 м (на урoвне рoста челoвека скoрoсть ветра ниже в 1.5-2 раза). Если метеoстанция нахoдится в гoрoде или в лесу, тo скoрoсть ветра занижена на 2-4 м/с пo сравнению с oткрытым местoм. Скoрoсть ветра над акватoриями крупных рек и oзёр, а также на вершинах хoлмoв на 2-5 м/с выше, чем в oбычных услoвиях.
Атмoсфернoе давление в разных тoчках местнoсти мoжет значительнo oтличаться oт давления на метеoстанции, в зависимoсти oт услoвий рельефа (при пoдъёме на 10 м давление пoнижается примернo на 1 мм рт.ст.).